Regional Weather Roundup
Issued by NWS Charleston, SC

Current Version | Previous Version | Text Only | Print | Product List | Glossary On
Versions: 1 2 3 4 5 6 7 8 9 10 11 12 13 14 15 16 17 18 19 20 21 22 23 24 25 26 27 28 29 30 31 32 33 34 35 36 37 38 39 40 41 42 43 44 45 46 47 48 49 50
000 ASUS42 KCHS 250727 RWRCHS REGIONAL WEATHER ROUNDUP NATIONAL WEATHER SERVICE CHARLESTON SC 300 AM EDT TUE JUL 25 2017 NOTE: "FAIR" INDICATES FEW OR NO CLOUDS BELOW 12,000 FEET WITH NO SIGNIFICANT WEATHER AND/OR OBSTRUCTIONS TO VISIBILITY. NOT ALL STATIONS ARE QUALITY CONTROLLED. USE DATA WITH CAUTION... ESPECIALLY DEWPOINT OBSERVATIONS. SCZ027-030-031-034>040-042>050-250800- ...SOUTHEAST SOUTH CAROLINA... CITY SKY/WX TMP DP RH WIND PRES REMARKS N CHARLESTON FAIR 76 74 93 CALM 30.00S WATERFRONT PRK N/A 79 77 94 VRB2 29.98S JOHNS ISLAND FAIR 77 75 94 SW5 30.01S PINOPOLIS N/A 75 75 100 CALM 29.93S MONCKS CORNER FAIR 73 72 94 CALM 30.00S SUMMERVILLE FAIR 73 72 94 CALM 30.01S BEAUFORT MCAS FAIR 77 77 100 SW6 30.00S BEAUFORT ARPT FAIR 79 73 83 SW6 29.99F HILTON HEAD IS FAIR 79 77 94 SW6 30.01S WALTERBORO FAIR 73 72 94 SW5 30.01S ALLENDALE NOT AVBL ...SOUTHERN MIDLANDS AND PEE DEE... CITY SKY/WX TMP DP RH WIND PRES REMARKS GEORGETOWN FAIR 72 72 100 CALM 30.01F KINGSTREE FAIR 72 70 94 CALM 30.01S FOG ORANGEBURG FAIR 73 72 96 W3 30.01S BARNWELL FAIR 75 75 100 CALM 30.02S AIKEN FAIR 72 72 100 S3 30.06R MANNING FAIR 72 72 100 E12 30.01S COLUMBIA MOCLDY 75 72 90 SW3 29.99S SUMTER FAIR 73 71 92 CALM 29.98S FLORENCE FAIR 73 73 100 S5 30.01R MYRTLE BEACH FAIR 76 73 91 CALM 30.02F N MYRTLE BEACH FAIR 74 73 97 SW6 30.01S $$ GAZ063-065-086>088-099>101-113>116-118-119-134>141-150-250800- ...SOUTHEAST GEORGIA... CITY SKY/WX TMP DP RH WIND PRES REMARKS SAVANNAH ARPT FAIR N/A N/A N/A SW5 30.01F HUNTER AAF FAIR 77 75 93 SW5 29.98F FORT STEWART FAIR 76 74 93 SW6 29.99F STATESBORO FAIR 76 76 100 CALM 30.01F SYLVANIA FAIR 75 75 100 CALM 30.02S CLAXTON FAIR 77 75 96 CALM 30.02S ...CSRA...CENTRAL AND FAR SOUTHEAST GEORGIA... CITY SKY/WX TMP DP RH WIND PRES REMARKS THOMSON FAIR 72 71 96 W3 30.07S AUGUSTA-BUSH FAIR 74 73 97 S5 30.01R AUGUSTA-DANIEL FAIR 75 70 84 CALM 30.02R SWAINSBORO FAIR 73 73 100 CALM 30.02F VIDALIA FAIR 77 75 94 CALM 30.02S EASTMAN PTSUNNY 75 75 100 CALM 30.05S HAZLEHURST FAIR 77 77 100 SW3 30.02F ALMA FAIR 76 74 93 SW5 30.03S WAYCROSS CLOUDY 80 80 100 SW6 30.04S JESUP NOT AVBL BAXLEY FAIR 77 77 100 W3 30.03S BRUNSWICK FAIR 79 77 94 SW5 30.04R SAINT SIMONS FAIR 80 76 87 SW12 30.03S $$ SCZ027-028-034-036>038-045-046-048>050-GAZ119-141-250800- ...LAKE AND SUPPLEMENTAL COASTAL OBSERVATIONS... STATION/POSITION TIME TEMP WIND PRES WAVE SWELL AIR SEA DIR/SP/G HT/PER HT/PER/DIR (UTC) (F) (DEG/KT/KT) (MB) (FT/S) (FT/S/D) WINYAH BAY 0630 76 CALM 1016.0S LAKE MURRAY 0620 78 240/ 6/ 9 1014.9S ACE BASIN NERRS 0630 78 CALM 1016.0S FORT PULASKI 0700 79 85 240/ 5/ 8 1016.2 SAPELO ISLAND 0630 80 230/ 10 1017.0S $$ ANZ835-935-AMZ111-154-330-350-352-354-370-450-454-472-250800- ...C-MAN AND BUOY OBSERVATIONS... STATION/POSITION TIME TEMP WIND PRES WAVE SWELL AIR SEA DIR/SP/G HT/PER HT/PER/DIR (UTC) (F) (DEG/KT/KT) (MB) (FT/S) (FT/S/D) BUOY 41004 0710 81 81 230/ 10/ 12 1016.0 BUOY 41008 0650 81 80 220/ 12/ 16 1016.3F 2/ 9 2/110/ 9 FOLLY BEACH CMAN 0700 80 240/ 8/ 9 1016.4F CAPERS NEARSHORE 0708 80 84 240/ 12/ 17 1015.8R FRIPP NEARSHORE 0708 83 84 230/ 16/ 21 1015.5F STATION/POSITION TIME TEMP WIND PRES WAVE SWELL AIR SEA DIR/SP/G HT/PER HT/PER/DIR (UTC) (F) (DEG/KT/KT) (MB) (FT/S) (FT/S/D) 5E ST. MARYS GA 0700 76 N/A 2/11 FRYING PAN BUOY 0710 81 82 220/ 14/ 17 1016.3 BUOY 41025 0650 82 84 240/ 19/ 25 1014.6F 6/ 6 2/140/10 CAPE LOOKOUT NC 0700 80 250/ 10/ 12 1015.2F BUOY 41002 0650 83 83 210/ 16/ 17 1018.7F 5/ 6 2/ 80/ 9 BUOY 41010 0710 84 85 180/ 12/ 16 1019.0 ST AUGUSTINE FL 0700 78 74 230/ 4/ 6 1018.2F $$

USA.gov is the U.S. government's official web portal to all federal, state and local government web resources and services.